Regional Weather Roundup
Issued by NWS Bismarck, ND

Home | Current Version | Previous Version | Text Only | Print | Product List | Glossary On
Versions: 1 2 3 4 5 6 7 8 9 10 11 12 13 14 15 16 17 18 19 20 21 22 23 24 25 26 27 28 29 30 31 32 33 34 35 36 37 38 39 40 41 42 43 44 45 46 47 48 49 50
000
ASUS43 KBIS 251702
RWRBIS

NWR BROADCAST TEXT
NATIONAL WEATHER SERVICE BISMARCK ND
1100 AM CST SAT FEB 25 2017

NOTE: "FAIR" INDICATES FEW OR NO CLOUDS BELOW 12,000 FEET WITH NO
SIGNIFICANT WEATHER AND/OR OBSTRUCTIONS TO VISIBILITY.


CITY           SKY/WX    TMP DP  RH WIND       PRES   REMARKS
WILLISTON      PTSUNNY   22  17  81 CALM      29.86F
MINOT          PTSUNNY   22  17  81 W14       29.85F WCI   9
MINOT AFB      NOT AVBL
BISMARCK       LGT SNOW  27  24  89 N9        29.87S VSB 1   WCI  18
DICKINSON      CLOUDY    22  18  85 NW10      29.82F WCI  11
GARRISON         N/A     24  19  81 NW10      29.85F WCI  14
HETTINGER ARPT CLOUDY    28  22  78 N17       29.84F WCI  16
JAMESTOWN      CLOUDY    25  21  85 NW14      29.83F WCI  13
CARRINGTON     CLOUDY    23  21  93 NW18      29.85F WCI   9
HAZEN          PTSUNNY  N/A N/A N/A CALM      29.90F
MANDAN         LGT SNOW  25  23  93 N8        29.86S WCI  16
STANLEY        PTSUNNY   19  18  93 N6        29.84F WCI  11
$$

CITY           SKY/WX    TMP DP  RH WIND       PRES   REMARKS
GRAND FORKS    PTSUNNY   30  20  66 W9        29.82F
GRAND FORKS AF PTSUNNY   30  22  73 NW13      29.82F WCI  20
DEVILS LAKE    CLOUDY    21  19  92 NW17      29.82F WCI   7
FARGO          PTSUNNY   29  20  69 SW14      29.87F WCI  18
CAVALIER         N/A     23  19  86 W9        29.82F WCI  13
GRAFTON        FAIR      25  21  86 NW12      29.85F WCI  14
GWINNER        PTSUNNY   30  23  74 SW20      29.88F WCI  18
ROLLA          PTSUNNY   18  14  86 NW18      29.80F WCI   2
$$

CITY           SKY/WX    TMP DP  RH WIND       PRES   REMARKS
ABERDEEN       FAIR      31  17  56 SW15G21   29.92F
MOBRIDGE       FAIR      32  18  56 S6        29.84F
BUFFALO          N/A     31  18  58 NW17      29.76F WCI  19
RAPID CITY     FAIR      29  20  69 N13       29.87F WCI  19
GLASGOW        CLOUDY    25  21  85 W9        29.81F FOG     WCI  15
SIDNEY         CLOUDY    25  21  85 S5        29.87F WCI  19
WOLF POINT     LGT SNOW  22  18  85 CALM      29.85F FOG
GLENDIVE       CLOUDY    25  22  88 S9        29.85F WCI  15
MILES CITY     CLOUDY    29  21  72 W12       29.86F WCI  19
BAKER          CLOUDY    25  18  74 NW12      29.84F WCI  14
$$

CITY           SKY/WX    TMP DP  RH WIND       PRES   REMARKS
BILLINGS       PTSUNNY   25  19  78 SW14      29.86F WCI  13
GREAT FALLS    FAIR      28   8  43 SW23G29   29.79F WCI  14
$$




USA.gov is the U.S. government's official web portal to all federal, state and local government web resources and services.